Hourly Weather Almásfüzitõ

Today, 26 February, Friday

Time Temperature Precipitation Wind Pressure Humidity
00:00 +9°C° 0 mm 2 mps 762 mmHg 76%
01:00 +10°C° 0 mm 1 mps 762 mmHg 78%
02:00 +10°C° 0 mm 1 mps 761 mmHg 79%
03:00 +9°C° 0 mm 1 mps 761 mmHg 80%
04:00 +9°C° 0 mm 1 mps 761 mmHg 81%
05:00 +9°C° 0 mm 1 mps 761 mmHg 82%
06:00 +8°C° 0 mm 1 mps 761 mmHg 83%
07:00 +7°C° 0 mm 0 mps 761 mmHg 83%
08:00 +9°C° 0 mm 0 mps 761 mmHg 78%
09:00 +10°C° 0 mm 0 mps 761 mmHg 73%
10:00 +13°C° 0 mm 1 mps 761 mmHg 69%
11:00 +14°C° 0 mm 1 mps 760 mmHg 66%
12:00 +15°C° 0 mm 1 mps 760 mmHg 63%
13:00 +16°C° 0 mm 2 mps 759 mmHg 61%
14:00 +16°C° 0 mm 2 mps 759 mmHg 61%
15:00 +16°C° 0 mm 1 mps 758 mmHg 61%
16:00 +16°C° 0 mm 1 mps 758 mmHg 61%
17:00 +15°C° 0 mm 1 mps 758 mmHg 65%
18:00 +13°C° 0 mm 1 mps 757 mmHg 69%
19:00 +12°C° 0 mm 1 mps 757 mmHg 73%
20:00 +12°C° 0 mm 1 mps 757 mmHg 74%
21:00 +10°C° 0 mm 2 mps 757 mmHg 75%
22:00 +10°C° 0 mm 2 mps 758 mmHg 76%
23:00 +9°C° 0 mm 2 mps 758 mmHg 78%

Tomorrow, 27 February, Saturday

Time Temperature Precipitation Wind Pressure Humidity
00:00 +9°C° 0 mm 3 mps 758 mmHg 80%
01:00 +9°C° 0 mm 3 mps 758 mmHg 82%
02:00 +7°C° 0 mm 4 mps 758 mmHg 81%
03:00 +7°C° 0 mm 5 mps 759 mmHg 80%
04:00 +7°C° 0 mm 6 mps 759 mmHg 79%
05:00 +5°C° 0 mm 6 mps 759 mmHg 79%
06:00 +4°C° 0 mm 7 mps 760 mmHg 78%
07:00 +4°C° 0 mm 7 mps 760 mmHg 77%
08:00 +4°C° 0 mm 7 mps 761 mmHg 71%
09:00 +5°C° 0 mm 7 mps 761 mmHg 66%
10:00 +6°C° 0 mm 8 mps 762 mmHg 60%
11:00 +6°C° 0 mm 8 mps 762 mmHg 59%
12:00 +7°C° 0 mm 8 mps 762 mmHg 58%
13:00 +9°C° 0 mm 8 mps 762 mmHg 57%
14:00 +7°C° 0 mm 8 mps 762 mmHg 57%
15:00 +8°C° 0 mm 7 mps 762 mmHg 58%
16:00 +8°C° 0 mm 7 mps 762 mmHg 59%
17:00 +6°C° 0 mm 7 mps 762 mmHg 62%
18:00 +5°C° 0 mm 6 mps 763 mmHg 66%
19:00 +5°C° 0 mm 5 mps 763 mmHg 69%
20:00 +3°C° 0 mm 5 mps 763 mmHg 71%
21:00 +3°C° 0 mm 5 mps 764 mmHg 73%
22:00 +2°C° 0 mm 5 mps 764 mmHg 74%
23:00 +1°C° 0 mm 4 mps 764 mmHg 76%

Day after tomorrow, 28 February, Sunday

Time Temperature Precipitation Wind Pressure Humidity
00:00 +1°C° 0 mm 4 mps 765 mmHg 78%
01:00 +1°C° 0 mm 3 mps 765 mmHg 80%
02:00 +1°C° 0 mm 3 mps 765 mmHg 81%
03:00 +2°C° 0 mm 2 mps 765 mmHg 82%
04:00 +1°C° 0 mm 2 mps 764 mmHg 83%
05:00 +1°C° 0 mm 2 mps 765 mmHg 84%
06:00 +1°C° 0 mm 2 mps 765 mmHg 85%
07:00 +1°C° 0 mm 2 mps 765 mmHg 86%
08:00 +2°C° 0 mm 2 mps 765 mmHg 80%
09:00 +4°C° 0 mm 2 mps 765 mmHg 74%
10:00 +5°C° 0 mm 2 mps 765 mmHg 68%
11:00 +6°C° 0 mm 2 mps 765 mmHg 63%
12:00 +7°C° 0 mm 2 mps 765 mmHg 58%
13:00 +8°C° 0 mm 2 mps 765 mmHg 54%
14:00 +8°C° 0 mm 2 mps 765 mmHg 53%
15:00 +8°C° 0 mm 2 mps 764 mmHg 52%
16:00 +9°C° 0 mm 1 mps 764 mmHg 51%
17:00 +8°C° 0 mm 1 mps 764 mmHg 56%
18:00 +7°C° 0 mm 1 mps 764 mmHg 61%
19:00 +6°C° 0 mm 1 mps 764 mmHg 66%
20:00 +6°C° 0 mm 1 mps 764 mmHg 68%
21:00 +5°C° 0 mm 1 mps 764 mmHg 71%
22:00 +5°C° 0 mm 1 mps 764 mmHg 73%
23:00 +4°C° 0 mm 1 mps 764 mmHg 75%

1 March, Monday

Time Temperature Precipitation Wind Pressure Humidity
00:00 +4°C° 0 mm 1 mps 764 mmHg 76%
01:00 +4°C° 0 mm 1 mps 764 mmHg 77%
02:00 +3°C° 0 mm 1 mps 764 mmHg 78%
03:00 +3°C° 0 mm 1 mps 764 mmHg 80%
04:00 +3°C° 0 mm 1 mps 764 mmHg 81%
05:00 +3°C° 0 mm 1 mps 764 mmHg 81%
06:00 +2°C° 0 mm 1 mps 764 mmHg 82%
07:00 +2°C° 0 mm 1 mps 764 mmHg 82%
08:00 +4°C° 0 mm 1 mps 764 mmHg 76%
09:00 +5°C° 0 mm 1 mps 764 mmHg 69%
10:00 +7°C° 0 mm 1 mps 764 mmHg 63%
11:00 +8°C° 0 mm 1 mps 765 mmHg 59%
12:00 +9°C° 0 mm 1 mps 765 mmHg 54%
13:00 +10°C° 0 mm 1 mps 765 mmHg 50%
14:00 +10°C° 0 mm 1 mps 765 mmHg 49%
15:00 +11°C° 0 mm 1 mps 764 mmHg 48%
16:00 +11°C° 0 mm 1 mps 764 mmHg 48%
17:00 +10°C° 0 mm 1 mps 765 mmHg 52%
18:00 +9°C° 0 mm 1 mps 765 mmHg 57%
19:00 +8°C° 0 mm 1 mps 765 mmHg 61%
20:00 +7°C° 0 mm 1 mps 766 mmHg 65%
21:00 +7°C° 0 mm 1 mps 766 mmHg 68%
22:00 +5°C° 0 mm 2 mps 767 mmHg 72%
23:00 +5°C° 0 mm 2 mps 767 mmHg 74%

2 March, Tuesday

Time Temperature Precipitation Wind Pressure Humidity
00:00 +4°C° 0 mm 2 mps 767 mmHg 77%
01:00 +4°C° 0 mm 2 mps 767 mmHg 79%
02:00 +3°C° 0 mm 2 mps 767 mmHg 79%
03:00 +3°C° 0 mm 2 mps 767 mmHg 80%
04:00 +3°C° 0 mm 2 mps 767 mmHg 80%
05:00 +2°C° 0 mm 2 mps 767 mmHg 80%
06:00 +2°C° 0 mm 2 mps 767 mmHg 81%
07:00 +2°C° 0 mm 2 mps 767 mmHg 81%
08:00 +4°C° 0 mm 2 mps 767 mmHg 75%
09:00 +5°C° 0 mm 2 mps 767 mmHg 69%
10:00 +7°C° 0 mm 2 mps 767 mmHg 62%
11:00 +8°C° 0 mm 3 mps 767 mmHg 59%
12:00 +9°C° 0 mm 3 mps 767 mmHg 55%
13:00 +10°C° 0 mm 3 mps 767 mmHg 51%
14:00 +10°C° 0 mm 3 mps 767 mmHg 52%
15:00 +10°C° 0 mm 3 mps 766 mmHg 52%
16:00 +10°C° 0 mm 3 mps 766 mmHg 53%
17:00 +9°C° 0 mm 3 mps 766 mmHg 58%
18:00 +8°C° 0 mm 2 mps 766 mmHg 62%
19:00 +6°C° 0 mm 2 mps 766 mmHg 67%
20:00 +6°C° 0 mm 2 mps 766 mmHg 69%
21:00 +6°C° 0 mm 2 mps 766 mmHg 71%
22:00 +5°C° 0 mm 2 mps 766 mmHg 73%
23:00 +5°C° 0 mm 2 mps 766 mmHg 74%

3 March, Wednesday

Time Temperature Precipitation Wind Pressure Humidity
00:00 +5°C° 0 mm 2 mps 766 mmHg 76%
01:00 +4°C° 0 mm 2 mps 766 mmHg 78%
02:00 +4°C° 0 mm 2 mps 765 mmHg 79%
03:00 +4°C° 0 mm 2 mps 765 mmHg 80%
04:00 +3°C° 0 mm 2 mps 765 mmHg 81%
05:00 +3°C° 0 mm 2 mps 765 mmHg 81%
06:00 +3°C° 0 mm 2 mps 765 mmHg 82%
07:00 +3°C° 0 mm 2 mps 765 mmHg 82%
08:00 +5°C° 0 mm 2 mps 765 mmHg 75%
09:00 +7°C° 0 mm 2 mps 765 mmHg 68%
10:00 +8°C° 0 mm 2 mps 765 mmHg 61%
11:00 +9°C° 0 mm 2 mps 764 mmHg 58%
12:00 +12°C° 0 mm 2 mps 764 mmHg 54%
13:00 +13°C° 0 mm 2 mps 764 mmHg 50%
14:00 +13°C° 0 mm 2 mps 763 mmHg 50%
15:00 +13°C° 0 mm 1 mps 763 mmHg 50%
16:00 +13°C° 0 mm 1 mps 763 mmHg 50%
17:00 +12°C° 0 mm 1 mps 762 mmHg 56%
18:00 +10°C° 0 mm 1 mps 762 mmHg 61%
19:00 +8°C° 0 mm 0 mps 762 mmHg 66%
20:00 +8°C° 0 mm 0 mps 762 mmHg 68%
21:00 +7°C° 0 mm 0 mps 762 mmHg 70%
22:00 +7°C° 0 mm 0 mps 762 mmHg 72%
23:00 +6°C° 0 mm 0 mps 762 mmHg 73%
Show more